User: anonymous   Login
Location: White Ridge parking lot
(35.4984°N, 106.8413°W)
Time: 16:51:25
(UTC-06:00)
Language:

XW-2D - Orbit

View from above orbital plane
View from above orbital plane
View from above satellite
View from above satellite

Ground track
Ground track

The orbit data is extracted from the following two-line orbital elements,

1 40907U 15049J   19258.76346243  .00000264  00000-0  17248-4 0  9997
2 40907  97.4679 259.0608 0012593 245.7667 232.1734 15.15939675220503
Epoch (UTC): 15 September 2019 18:19:23
Eccentricity: 0.0012593
inclination: 97.4679°
perigee height: 509 km
apogee height: 527 km
right ascension of ascending node: 259.0608°
argument of perigee: 245.7667°
revolutions per day: 15.15939675
mean anomaly at epoch: 232.1734°
orbit number at epoch: 22050

The dashed part of the orbit path shows where the satellite is in the earth's shadow,  

DLR